{"data":{"norad_id":62467,"intl_designator":"2024-254F","name":"STARLINK-11486 [DTC]","alt_names":[],"object_type":"PAYLOAD","status":"ACTIVE","operator":null,"country":"US","launch_date":"2024-12-31","launch_site_code":"AFETR","launch_vehicle":null,"mission":null,"orbit_class":"UNKNOWN","rcs_meters":null,"size_class":null,"mass_kg":null,"dimensions":null,"purposes":["comms"],"wikipedia_slug":null,"has_3d_model":false,"image_url":null,"decayed_at":null,"tle_current":{"epoch":"2026-09-21T22:40:58.804320Z","epoch_age_seconds":52414,"freshness":"FRESH","line1":"1 62467U 24254F   26264.94512505  .00113079  00000+0  87268-3 0  9997","line2":"2 62467  42.9981 120.3337 0001392 280.2264  79.8447 15.70843357100269","mean_motion":15.70843357,"eccentricity":0.0001392,"inclination_deg":42.9981,"raan_deg":120.3337,"arg_perigee_deg":280.2264,"mean_anomaly_deg":79.8447,"bstar":0.00087268,"rev_number":10026,"period_min":91.670502573224,"perigee_km":355.54800720402,"apogee_km":357.42292609874,"semimajor_km":6734.6224666514,"source":"CELESTRAK","updated_at":"2026-09-22T09:00:49.612050Z"}}}